Overview Statistics Trail Chart Weather Telemetry Raw packets
 

This is the latest recevied weather packets stored in our database for station/object SV7GBF-2. If no packets are shown the sender has not sent any weather packets the latest 10 day(s).

<< 43 44 45 46 47 >>
Time Temp. Humidity Pressure Rain* Wind** Luminosity Snow
1787842447 35° C 9% 1015 hPa - - - -
1787841850 35.56° C 6% 1015 hPa - - - -
1787840648 35.56° C 6% 1015 hPa - - - -
1787840049 35.56° C 6% 1015 hPa - - - -
1787838249 35° C 6% 1016 hPa - - - -
1787837648 35.56° C 6% 1016 hPa - - - -
1787835854 35° C 6% 1016 hPa - - - -
1787834649 35° C 6% 1016 hPa - - - -
1787834048 35° C 6% 1016 hPa - - - -
1787833448 34.44° C 6% 1016 hPa - - - -
1787832248 34.44° C 9% 1016 hPa - - - -
1787831648 33.89° C 9% 1016 hPa - - - -
1787831049 33.89° C 12% 1016 hPa - - - -
1787830448 33.33° C 14% 1016 hPa - - - -
1787829848 32.78° C 17% 1017 hPa - - - -
1787829247 32.22° C 22% 1017 hPa - - - -
1787828648 31.67° C 29% 1017 hPa - - - -
1787828048 31.67° C 32% 1017 hPa - - - -
1787827449 31.67° C 32% 1017 hPa - - - -
1787826848 31.11° C 31% 1017 hPa - - - -
1787824447 30.56° C 36% 1017 hPa - - - -
1787823848 30° C 40% 1017 hPa - - - -
1787822649 29.44° C 45% 1017 hPa - - - -
1787822048 29.44° C 44% 1017 hPa - - - -
1787820848 28.89° C 45% 1017 hPa - - - -

* Rain since midnight (hover to see other rain measurements)
** Current wind speed in m/s (hover to see current wind gust speed)